Time,TemperatureF,DewpointF,PressureIn,WindDirection,WindDirectionDegrees,WindSpeedMPH,WindSpeedGustMPH,Humidity,HourlyPrecipIn,Conditions,Clouds,dailyrainin,SoftwareType,DateUTC
2015-04-27 00:00:00,42.1,36.0,30.03,East,84,0.0,0.0,79,0.00,,,0.00,meteohub,2015-04-27 04:00:00,
2015-04-27 00:05:00,41.7,36.0,30.03,East,83,0.0,0.0,80,0.00,,,0.00,meteohub,2015-04-27 04:05:00,
2015-04-27 00:11:00,41.5,35.6,30.03,East,83,0.0,0.0,79,0.00,,,0.00,meteohub,2015-04-27 04:11:00,
2015-04-27 00:16:00,41.2,35.4,30.03,East,83,0.0,0.0,80,0.00,,,0.00,meteohub,2015-04-27 04:16:00,
2015-04-27 00:20:00,40.6,35.2,30.03,East,84,0.0,0.0,81,0.00,,,0.00,meteohub,2015-04-27 04:20:00,
2015-04-27 00:25:00,40.6,36.0,30.03,East,83,0.0,0.0,83,0.00,,,0.00,meteohub,2015-04-27 04:25:00,
2015-04-27 00:30:00,40.3,35.6,30.03,East,84,0.0,1.0,83,0.00,,,0.00,meteohub,2015-04-27 04:30:00,
2015-04-27 00:35:00,39.7,35.2,30.03,East,84,0.0,1.0,84,0.00,,,0.00,meteohub,2015-04-27 04:35:00,
2015-04-27 00:41:00,39.4,35.2,30.03,East,84,0.0,1.0,85,0.00,,,0.00,meteohub,2015-04-27 04:41:00,
2015-04-27 00:46:00,38.8,34.7,30.03,East,84,0.0,0.0,85,0.00,,,0.00,meteohub,2015-04-27 04:46:00,
2015-04-27 00:50:00,38.7,35.1,30.03,East,84,0.0,0.0,87,0.00,,,0.00,meteohub,2015-04-27 04:50:00,
2015-04-27 00:56:00,38.8,35.6,30.03,East,84,0.0,0.0,88,0.00,,,0.00,meteohub,2015-04-27 04:56:00,
2015-04-27 01:01:00,38.8,35.6,30.04,East,84,0.0,0.0,88,0.00,,,0.00,meteohub,2015-04-27 05:01:00,
2015-04-27 01:06:00,38.8,35.6,30.04,East,83,1.0,0.0,88,0.00,,,0.00,meteohub,2015-04-27 05:06:00,
2015-04-27 01:11:00,39.0,35.8,30.04,East,84,0.0,1.0,88,0.00,,,0.00,meteohub,2015-04-27 05:11:00,
2015-04-27 01:16:00,38.8,36.0,30.04,East,84,0.0,1.0,89,0.00,,,0.00,meteohub,2015-04-27 05:16:00,
2015-04-27 01:21:00,38.8,35.6,30.04,East,84,0.0,1.0,88,0.00,,,0.00,meteohub,2015-04-27 05:21:00,
2015-04-27 01:26:00,38.7,35.4,30.04,East,84,0.0,1.0,88,0.00,,,0.00,meteohub,2015-04-27 05:26:00,
2015-04-27 01:31:00,38.7,35.8,30.04,East,84,0.0,0.0,89,0.00,,,0.00,meteohub,2015-04-27 05:31:00,
2015-04-27 01:36:00,38.3,35.4,30.04,East,84,0.0,0.0,89,0.00,,,0.00,meteohub,2015-04-27 05:36:00,
2015-04-27 01:41:00,38.1,35.2,30.04,East,84,0.0,0.0,89,0.00,,,0.00,meteohub,2015-04-27 05:41:00,
2015-04-27 01:46:00,37.9,35.1,30.04,East,84,0.0,0.0,89,0.00,,,0.00,meteohub,2015-04-27 05:46:00,
2015-04-27 01:51:00,37.9,35.2,30.04,East,83,0.0,0.0,90,0.00,,,0.00,meteohub,2015-04-27 05:51:00,
2015-04-27 01:56:00,37.9,35.2,30.04,East,84,0.0,0.0,90,0.00,,,0.00,meteohub,2015-04-27 05:56:00,
2015-04-27 02:01:00,37.8,35.1,30.04,NNW,340,0.0,0.0,90,0.00,,,0.00,meteohub,2015-04-27 06:01:00,
2015-04-27 02:06:00,37.8,35.4,30.04,NNW,340,0.0,0.0,91,0.00,,,0.00,meteohub,2015-04-27 06:06:00,